Location: Betz
(49.1556°N, 2.9558°E)
Time: 11:44:33
(UTC+00:00)

NOSS 3-4 (A) - Pass Details

Date: 18 September 2019
Orbit: 910 x 1303 km, 63.4° (Epoch: 21 September)

Event Time Altitude Azimuth Distance (km) Brightness Sun altitude
Rises 19:48:28 0° 316° (NW) 3,835 7.9 -18.6°
Reaches altitude 10° 19:51:04 10° 312° (NW) 2,932 7.1 -19.0°
Maximum altitude 19:57:50 54° 238° (WSW) 1,392 4.4 -20.0°
Enters shadow 20:03:35 17° 168° (SSE) 2,649 5.4 -20.8°
